Terminal Aerodrome Forecast
Issued by NWS Columbia, SC

Home | Current Version | Previous Version | Text Only | Print | Product List | Glossary On
Versions: 1 2 3 4 5 6 7 8 9 10 11 12 13 14 15 16 17 18 19 20 21 22 23 24 25 26 27 28 29 30 31 32 33 34 35 36 37 38 39 40 41 42 43 44
890
FTUS42 KCAE 041523 AAA
TAFAGS
TAF AMD
KAGS 041523Z 0415/0512 31009KT P6SM SKC
     FM041700 29011G18KT P6SM FEW050
     FM042300 26007KT P6SM SCT100=

USA.gov is the U.S. government's official web portal to all federal, state and local government web resources and services.